Regional Weather Roundup
Issued by NWS

Home | Current Version | Previous Version | Graphics & Text | Print | Product List | Glossary Off
Versions: 1 2 3 4 5 6 7 8 9 10 11 12 13 14 15 16 17 18 19 20 21 22 23 24 25 26 27 28 29 30 31 32 33 34 35 36 37 38 39 40 41 42 43 44 45 46 47 48 49 50

000
ASUS43 KDMX 242007
RWRIA

WEATHER ROUNDUP FOR IOWA
NATIONAL WEATHER SERVICE DES MOINES IA
300 PM CDT SUN MAY 24 2015

NOTE: "FAIR" INDICATES FEW OR NO CLOUDS BELOW 12,000 FEET WITH NO
SIGNIFICANT WEATHER AND/OR OBSTRUCTIONS TO VISIBILITY.

* - THESE STATIONS ARE NOT NWS STATIONS...THUS NOT UNDER NWS
QUALITY CONTROL.  THEY ALSO DO NOT REPORT WEATHER SUCH
AS PRECIPITATION OR FOG.

IAZ001>003-012>014-020>022-031>034-043>046-242100-
   NORTHWEST IOWA

CITY           SKY/WX    TMP DP  RH WIND       PRES   REMARKS
CARROLL *      CLOUDY    64  64 100 S13       29.81F
CHEROKEE *     CLOUDY    64  63  94 S5        29.81F
DENISON *      CLOUDY    64  64 100 S8        29.80S
LE MARS *      LGT RAIN  64  59  82 CALM      29.82S
ORANGE CITY *  CLOUDY    61  59  94 E3        29.82F
SHELDON *      CLOUDY    61 N/A N/A E12       29.81F FOG
SIOUX CITY     CLOUDY    65  59  81 CALM      29.81F
SPENCER        CLOUDY    62  60  93 E9        29.83F FOG
STORM LAKE *   CLOUDY    64  63  94 S8        29.82F
$$

IAZ055>058-069>071-079>083-090>094-242100-
   SOUTHWEST IOWA

CITY           SKY/WX    TMP DP  RH WIND       PRES   REMARKS
ATLANTIC *     CLOUDY    66  64  94 S10       29.82S
AUDUBON *      CLOUDY    64  61  88 S9        29.83S
CLARINDA *     CLOUDY    70  64  83 SW12      29.84S
COUNCIL BLFS * CLOUDY    66  66 100 SW6       29.82F
CRESTON *      MOSUNNY   68  66  94 S10       29.84F
HARLAN  *      CLOUDY    64  64 100 S7        29.85S
LAMONI         CLOUDY    71  64  78 S10       29.85F
RED OAK *      CLOUDY    68  64  88 S9        29.82F
SHENANDOAH *   CLOUDY    70  64  83 SW12      29.83F
$$

IAZ047>049-059>061-072>074-084-242100-
   CENTRAL IOWA

CITY           SKY/WX    TMP DP  RH WIND       PRES   REMARKS
AMES           CLOUDY    65  62  90 S9        29.84F
ANKENY *       CLOUDY    68  64  88 SE10      29.84F
CHARITON *     CLOUDY    70  66  88 S10       29.86F
DES MOINES     LGT RAIN  69  63  81 S14       29.84F
GRINNELL*      CLOUDY    68  64  88 S10       29.87F
KNOXVILLE *    CLOUDY    70  64  83 S13       29.85S
MARSHALLTOWN   CLOUDY    64  62  93 SE10      29.85F FOG
PELLA *        CLOUDY    68  68 100 S9        29.87S
PERRY *        CLOUDY    64  63  94 S12       29.83F
$$

IAZ004>006-015-016-023>025-035-036-242100-
   NORTH CENTRAL IOWA

CITY           SKY/WX    TMP DP  RH WIND       PRES   REMARKS
ALGONA *       FOG       61  61 100 SE13      29.85F VSB 3/4
CLARION *      FOG       61  61 100 SE14      29.85F VSB 3/4
ESTHERVILLE    LGT RAIN  59  59 100 SE14      29.84F FOG
FORT DODGE *   CLOUDY    63  59  88 SE8       29.83F
MASON CITY     CLOUDY    60  59  96 SE16      29.89F FOG
FOREST CITY *  DRIZZLE   59  59 100 SE10G20   29.87F
IOWA FALLS *   DRIZZLE   63  61  94 SE10      29.87F
$$

IAZ007>011-017>019-026>030-037>042-050>054-066-242100-
   NORTHEAST IOWA

CITY           SKY/WX    TMP DP  RH WIND       PRES   REMARKS
CEDAR RAPIDS   LGT RAIN  66  65  96 E13       29.90F FOG
CHARLES CITY * CLOUDY    61  61 100 SE14G23   29.90S
CLINTON *      CLOUDY    66  63  88 E10       29.95F
DECORAH *      CLOUDY    59  57  94 SE13G21   29.93F
DUBUQUE        HVY RAIN  60  58  92 E3        29.96F FOG
MONTICELLO *   PTSUNNY   63  63 100 E9        29.94F FOG
OELWEIN *      CLOUDY    61  59  94 SE18G26   29.91F
WATERLOO       CLOUDY    63  60  90 SE13      29.88F
$$

IAZ064-065-067-068-078-242100-
   EAST CENTRAL IOWA

CITY           SKY/WX    TMP DP  RH WIND       PRES   REMARKS
DAVENPORT      CLOUDY    72  65  78 SE10      29.93F
IOWA CITY      CLOUDY    69  66  90 SE5       29.92F
MT. PLEASANT * CLOUDY    77  66  69 S15       29.89F
MUSCATINE *    PTSUNNY   72  66  83 S3        29.91F
QUAD CITIES    PTSUNNY   77  67  71 S10G18    29.90F
$$

IAZ062-063-075>077-085>089-095>099-242100-
   SOUTHEAST IOWA

CITY           SKY/WX    TMP DP  RH WIND       PRES   REMARKS
BURLINGTON     CLOUDY    77  67  71 S13G18    29.90F
FAIRFIELD *    PTSUNNY   73  66  78 SE10      29.89F
FORT MADISON * PTSUNNY   77  68  73 S9G17     29.90F
KEOKUK *       MOSUNNY   79  68  69 S10G18    29.88F HX  81
OSKALOOSA *    CLOUDY    72  66  83 S17       29.87F
CENTERVILLE *  MOSUNNY   72  72 100 S13       29.87F
OTTUMWA        CLOUDY    70  66  87 S15       29.87F
WASHINGTON *   CLOUDY    72  68  88 S7        29.91F
$$

ABBREVIATIONS USED IN REMARKS
   TC - TEMPERATURES IN CELSIUS
  WCI - WIND CHILL INDEX
   HX - HEAT INDEX
  VSB - VISIBILITY
$$




USA.gov is the U.S. government's official web portal to all federal, state and local government web resources and services.